Terminal Aerodrome Forecast
Issued by NWS Des Moines, IA

Home | Current Version | Previous Version | Text Only | Print | Product List | Glossary On
Versions: 1 2 3 4 5 6 7 8 9 10 11 12 13 14 15 16 17 18 19 20 21 22 23 24 25 26 27 28 29 30 31 32 33 34 35 36 37 38 39 40 41 42 43 44 45 46 47 48 49
000
FTUS43 KDMX 011739
TAFDSM
TAF
KDSM 011739Z 0118/0218 28013KT P6SM SCT025 BKN040
     FM020000 30004KT P6SM SCT050
     FM021500 26011KT P6SM SCT030=

USA.gov is the U.S. government's official web portal to all federal, state and local government web resources and services.